Weather History for Marathon, FL

Change the Weather History Date:

Tuesday, April 30, 2013

  Actual Average Record
Temperature  
Mean Temperature 85 °F 79 °F  
Max Temperature 90 °F 84 °F 90 °F (2013)
Min Temperature 79 °F 74 °F 70 °F (2001)
Degree Days  
Heating Degree Days 0 0  
Month to date heating degree days 0 0  
Since 1 July heating degree days 36 81  
Cooling Degree Days 20 14  
Month to date cooling degree days 510 371  
Year to date cooling degree days 1298 1036  
Growing Degree Days 34 (Base 50)    
Moisture  
Dew Point 69 °F    
Average Humidity 60    
Maximum Humidity 69    
Minimum Humidity 50    
Precipitation  
Precipitation T in 0.07 in 1.91 in (2012)
Month to date precipitation 4.12 2.38  
Year to date precipitation 7.89 8.59  
Snow  
Snow 0.00 in - - ()
Month to date snowfall 0.0  
Since 1 July snowfall 0.0  
Snow Depth 0.00 in    
Sea Level Pressure  
Sea Level Pressure 29.95 in    
Wind  
Wind Speed 8 mph (SE)    
Max Wind Speed 15 mph    
Max Gust Speed 24 mph    
Visibility 10 miles    
Events      
T = Trace of Precipitation, MM = Missing Value Source: NWS Daily Summary

Daily Weather History Graph

Daily Weather History Graph

Search for Another Location

Airport:

Trip Planner

Search our weather history database for the weather conditions in past years. The results will help you decide how hot, cold, wet, or windy it might be!

Date:

Astronomy

Apr. 30, 2013 Rise Set
Actual Time 6:49 AM EDT 7:53 PM EDT
Civil Twilight 6:25 AM EDT 8:17 PM EDT
Nautical Twilight 5:57 AM EDT 8:45 PM EDT
Astronomical Twilight 5:28 AM EDT 9:15 PM EDT
Moon 12:08 AM EDT (4/30) 11:22 AM EDT (4/30)
Length of Visible Light 13h 52m
Length of Day
13h 04m
Waning Gibbous, 70% of the Moon is Illuminated
Apr 30
Waning Gibbous
May 2
Last Quarter
May 9
New
May 18
First Quarter
May 25
Full

Hourly Weather History & Observations

Time (EDT) Temp. Heat Index Dew Point Humidity Pressure Visibility Wind Dir Wind Speed Gust Speed Precip Events Conditions
12:53 AM 80.1 °F 82.3 °F 66.9 °F 64% 29.95 in 10.0 mi SSE 6.9 mph - N/A   Clear
1:53 AM 80.1 °F 82.7 °F 68.0 °F 67% 29.94 in 10.0 mi SE 8.1 mph - N/A   Clear
2:53 AM 81.0 °F 84.4 °F 70.0 °F 69% 29.93 in 10.0 mi SE 9.2 mph 16.1 mph N/A   Scattered Clouds
3:53 AM 81.0 °F 84.4 °F 70.0 °F 69% 29.91 in 10.0 mi SE 8.1 mph 16.1 mph N/A   Scattered Clouds
4:53 AM 81.0 °F 84.1 °F 69.1 °F 67% 29.92 in 10.0 mi SSE 9.2 mph 17.3 mph N/A   Clear
5:53 AM 81.0 °F 84.4 °F 70.0 °F 69% 29.93 in 10.0 mi SSE 11.5 mph 18.4 mph N/A   Partly Cloudy
6:53 AM 81.0 °F 84.4 °F 70.0 °F 69% 29.94 in 10.0 mi SSE 9.2 mph - 0.00 in   Partly Cloudy
7:53 AM 82.0 °F 85.9 °F 70.0 °F 67% 29.95 in 10.0 mi SSE 8.1 mph - N/A   Partly Cloudy
8:53 AM 84.0 °F 89.0 °F 71.1 °F 65% 29.96 in 10.0 mi SSE 9.2 mph - N/A   Partly Cloudy
9:53 AM 84.9 °F 89.4 °F 70.0 °F 61% 29.98 in 10.0 mi SSE 9.2 mph - N/A   Clear
10:53 AM 87.1 °F 92.8 °F 71.1 °F 59% 29.99 in 10.0 mi SSE 6.9 mph - N/A   Clear
11:53 AM 88.0 °F 90.7 °F 66.9 °F 49% 29.98 in 10.0 mi SSE 6.9 mph - N/A   Clear
12:53 PM 88.0 °F 92.1 °F 69.1 °F 53% 29.96 in 10.0 mi SSE 8.1 mph - N/A   Clear
1:53 PM 88.0 °F 92.9 °F 70.0 °F 55% 29.96 in 10.0 mi South 9.2 mph - N/A   Clear
2:53 PM 88.0 °F 92.1 °F 69.1 °F 53% 29.94 in 10.0 mi SSE 8.1 mph - N/A   Clear
3:53 PM 87.1 °F 91.3 °F 69.1 °F 55% 29.93 in 10.0 mi SSE 9.2 mph - N/A   Clear
4:53 PM 87.1 °F 91.3 °F 69.1 °F 55% 29.93 in 10.0 mi South 6.9 mph - N/A   Clear
5:53 PM 86.0 °F 90.1 °F 69.1 °F 57% 29.93 in 10.0 mi SE 5.8 mph - N/A   Clear
6:53 PM 84.0 °F 87.0 °F 68.0 °F 58% 29.94 in 10.0 mi East 6.9 mph - N/A   Partly Cloudy
7:53 PM 82.9 °F 86.5 °F 69.1 °F 63% 29.96 in 10.0 mi East 5.8 mph - N/A   Clear
8:53 PM 82.0 °F 85.5 °F 69.1 °F 65% 29.95 in 10.0 mi East 5.8 mph - N/A   Clear
9:53 PM 81.0 °F 84.4 °F 70.0 °F 69% 29.97 in 10.0 mi ESE 6.9 mph - N/A   Clear
10:53 PM 82.0 °F 85.5 °F 69.1 °F 65% 29.99 in 10.0 mi ESE 5.8 mph - N/A   Scattered Clouds
11:03 PM 82.4 °F 86.3 °F 69.8 °F 66% 29.99 in 10.0 mi ESE 6.9 mph - N/A   Mostly Cloudy
11:39 PM 82.4 °F 86.3 °F 69.8 °F 66% 29.98 in 10.0 mi Variable 6.9 mph - N/A   Scattered Clouds
11:53 PM 82.0 °F 85.9 °F 70.0 °F 67% 29.98 in 10.0 mi ESE 6.9 mph - N/A   Partly Cloudy